Stations météo

réclame
Mon MeteoGroup
Woensdrecht, Pays-Bas (6340): Température de l'air & dewpoint: 15.01.2018 13:00:00 - 21.01.2018 13:00:00 (CET)Woensdrecht, Pays-Bas (6340): Température de l'air 5cm: 15.01.2018 13:00:00 - 21.01.2018 13:00:00 (CET)Woensdrecht, Pays-Bas (6340): Vitesse du vent & gusts: 15.01.2018 13:00:00 - 21.01.2018 13:00:00 (CET)Woensdrecht, Pays-Bas (6340): Direction du vent: 15.01.2018 13:00:00 - 21.01.2018 13:00:00 (CET)Woensdrecht, Pays-Bas (6340): reduced air pressure: 15.01.2018 13:00:00 - 21.01.2018 13:00:00 (CET)Woensdrecht, Pays-Bas (6340): visibility: 15.01.2018 13:00:00 - 21.01.2018 13:00:00 (CET)Woensdrecht, Pays-Bas (6340): Quantités de précipitations: 15.01.2018 13:00:00 - 21.01.2018 13:00:00 (CET)
Date & Time tt [°C] td [°C] tt 5cm [°C] ff [km/h] ff [knt] fx [km/h] fx [knt] dd ppp [hPa] vv [km] rr [mm]
21.01.2018 13:00:00 5,1 3,4 5,4 7 4 14 8 SW 1016,6 24 0,0
21.01.2018 12:00:00 3,6 2,4 3,1 8 4 14 8 SW 1016,6 10 0,0
21.01.2018 11:00:00 2,7 2,1 2,0 8 4 11 6 SSW 1016,4 10 0,0
21.01.2018 10:00:00 0,6 0,6 0,1 4 2 11 6 SW 1015,8 38 0,0
21.01.2018 09:00:00 -0,3 -0,3 -1,1 4 2 11 6 SW 1015,1 22 0,0
21.01.2018 08:00:00 -1,2 -1,3 -3,5 4 2 7 4 SW 1014,3 0,8 0,0
21.01.2018 07:00:00 -0,4 -0,4 -2,0 7 4 11 6 WSW 1013,4 14 0,0
21.01.2018 06:00:00 1,4 0,7 0,7 7 4 29 16 W 1012,7 50 0,2
21.01.2018 05:00:00 0,5 -0,4 -1,3 8 4 14 8 W 1011,6 10 0,0
21.01.2018 04:00:00 2,2 0,9 0,8 7 4 14 8 WNW 1010,7 44 0,0
21.01.2018 03:00:00 2,2 1,7 1,2 11 6 14 8 W 1009,9 24 0,0
21.01.2018 02:00:00 2,5 2,0 1,6 11 6 18 10 W 1008,4 29 0,0
21.01.2018 01:00:00 2,5 2,5 2,2 7 4 14 8 W 1007,0 26 0,6
21.01.2018 00:00:00 2,8 2,8 2,6 7 4 11 6 WNW 1006,0 4,3 0,3
20.01.2018 23:00:00 2,7 2,6 2,3 7 4 14 8 NW 1004,8 4,5 0,0
20.01.2018 22:00:00 1,9 1,9 1,0 7 4 11 6 NW 1003,7 3,2 0,0
20.01.2018 21:00:00 1,3 1,3 0,4 5 3 7 4 NNW 1002,4 2,5 0,0
20.01.2018 20:00:00 2,1 2,1 2,0 4 2 4 2 N 1001,3 3,3 0,3
20.01.2018 19:00:00 2,2 2,2 2,2 4 2 7 4 N 1000,8 4,5 0,1
20.01.2018 18:00:00 2,2 2,2 2,1 0 0 11 6 N 999,8 12 0,0
20.01.2018 17:00:00 2,5 2,2 2,6 7 4 11 6 E 999,4 13 0,0
20.01.2018 16:00:00 2,8 2,6 3,0 7 4 14 8 E 999,2 25 0,2
20.01.2018 15:00:00 3,2 2,8 3,5 7 4 11 6 ESE 999,5 18 0,2
20.01.2018 14:00:00 3,3 3,0 3,5 4 2 14 8 ESE 1000,2 14 1,1
20.01.2018 13:00:00 3,5 3,4 3,6 4 2 11 6 E 1001,5 7 1,4
20.01.2018 12:00:00 3,6 3,6 3,7 5 3 14 8 S 1002,9 10 1,2
20.01.2018 11:00:00 3,6 2,8 3,4 11 6 14 8 S 1003,5 14 0,0
20.01.2018 10:00:00 3,0 2,4 2,5 11 6 22 12 S 1004,0 10 0,0
20.01.2018 09:00:00 2,2 1,5 1,6 11 6 29 16 S 1004,9 18 0,0
20.01.2018 08:00:00 2,6 1,5 1,8 11 6 22 12 SSW 1005,3 27 0,0
20.01.2018 07:00:00 2,3 1,0 1,3 11 6 22 12 SSW 1006,0 22 0,0
20.01.2018 06:00:00 1,9 0,5 1,0 11 6 22 12 SSW 1006,7 10 0,0
20.01.2018 05:00:00 2,0 0,7 1,2 14 8 25 14 SSW 1007,3 20 0,0
20.01.2018 04:00:00 1,7 0,6 1,0 15 8 22 12 SW 1007,9 10 0,0
20.01.2018 03:00:00 2,0 0,5 1,2 14 8 25 14 SSW 1008,4 20 0,0
20.01.2018 02:00:00 2,4 0,5 1,6 14 8 25 14 SSW 1008,6 23 0,0
20.01.2018 01:00:00 2,7 0,7 2,0 14 8 25 14 SW 1008,8 23 0,0
20.01.2018 00:00:00 2,9 1,0 1,7 13 7 29 16 WSW 1008,8 10 0,0
19.01.2018 23:00:00 3,4 1,0 2,9 14 8 25 14 SW 1008,9 29 0,0
19.01.2018 22:00:00 3,4 1,4 2,9 18 10 40 21 SW 1008,8 11 0,1
19.01.2018 21:00:00 3,6 0,8 3,2 14 8 25 14 SW 1008,9 47 0,0
19.01.2018 20:00:00 3,4 0,7 2,3 11 6 25 14 SW 1008,7 10 0,0
19.01.2018 19:00:00 3,8 1,2 2,8 18 10 25 14 SW 1008,9 25 0,0
19.01.2018 18:00:00 3,8 1,6 3,0 13 7 29 16 WSW 1008,6 10 0,0
19.01.2018 17:00:00 4,2 1,6 3,2 18 10 29 16 WSW 1008,7 24 0,0
19.01.2018 16:00:00 4,2 1,4 3,7 18 10 36 19 WSW 1008,6 44 0,0
19.01.2018 15:00:00 5,2 2,0 4,9 25 14 36 19 WSW 1008,5 35 0,0
19.01.2018 14:00:00 5,7 2,6 5,6 22 12 36 19 SW 1008,7 28 0,0
19.01.2018 13:00:00 4,7 3,3 4,2 14 8 29 16 SW 1009,0 19 0,0
19.01.2018 12:00:00 3,8 2,1 3,8 15 8 25 14 SW 1009,1 10 0,0
19.01.2018 11:00:00 3,3 1,8 3,3 16 9 29 16 SW 1009,1 10 0,0
19.01.2018 10:00:00 3,2 1,9 2,9 13 7 29 16 SW 1008,6 10 0,0
19.01.2018 09:00:00 2,4 1,4 1,5 9 5 22 12 SSW 1008,0 10 0,0
19.01.2018 08:00:00 2,3 0,9 1,4 15 8 25 14 WSW 1007,4 10 0,0
19.01.2018 07:00:00 3,4 1,7 2,8 18 10 29 16 W 1006,9 10 0,0
19.01.2018 06:00:00 3,5 2,0 3,1 18 10 29 16 W 1006,3 10 0,0
19.01.2018 05:00:00 3,9 2,2 3,3 16 9 29 16 W 1005,6 10 0,0
19.01.2018 04:00:00 3,9 2,7 3,5 18 10 29 16 W 1005,2 10 0,0
19.01.2018 03:00:00 3,4 1,8 2,8 21 11 40 21 W 1004,5 10 0,3
19.01.2018 02:00:00 3,1 2,2 3,0 28 15 47 25 WSW 1004,1 4,3 0,5
19.01.2018 01:00:00 3,8 3,1 3,5 9 5 29 16 W 1003,6 10 0,0
19.01.2018 00:00:00 3,0 1,8 2,5 13 7 50 27 WSW 1003,2 10 1,4
18.01.2018 23:00:00 3,3 2,7 2,8 15 8 25 14 SW 1002,8 10 0,0
18.01.2018 22:00:00 3,3 2,6 2,3 13 7 32 18 WSW 1002,5 10 0,1
18.01.2018 21:00:00 4,2 3,3 4,2 21 11 32 18 W 1002,3 3,0 2,3
18.01.2018 20:00:00 5,0 2,6 3,5 9 5 14 8 SW 1002,0 10 0,0
18.01.2018 19:00:00 3,5 1,8 2,4 11 6 25 14 WSW 1001,9 10 0,0
18.01.2018 18:00:00 3,9 2,4 2,5 8 4 36 19 W 1002,1 10 0,0
18.01.2018 17:00:00 5,1 2,6 4,7 31 17 47 25 W 1002,2 6 0,1
18.01.2018 16:00:00 7,2 3,0 6,4 18 10 43 23 W 1001,7 10 0,0
18.01.2018 15:00:00 6,6 2,4 6,4 26 14 40 21 W 1001,3 10 0,0
18.01.2018 14:00:00 6,1 2,1 6,1 28 15 54 29 W 1001,2 10 0,0
18.01.2018 13:00:00 5,8 2,2 5,8 35 19 61 33 W 1000,4 10 0,0
18.01.2018 12:00:00 6,0 2,1 5,9 42 23 72 39 W 999,2 10 0,0
18.01.2018 11:00:00 6,2 1,5 6,0 46 25 101 54 W 996,8 10 0,0
18.01.2018 10:00:00 7,6 2,2 7,3 65 35 112 60 W 993,2 10 0,0
18.01.2018 09:00:00 9,5 3,8 8,8 68 37 97 53 WSW 989,9 10 0,0
18.01.2018 08:00:00 10,7 6,5 9,9 54 29 86 47 WSW 989,0 10 0,0
18.01.2018 07:00:00 8,7 7,5 8,0 29 16 61 33 SW 989,6 10 0,0
18.01.2018 06:00:00 7,4 6,4 6,8 37 20 58 31 SW 990,9 10 0,1
18.01.2018 05:00:00 5,9 5,2 5,3 29 16 50 27 SW 993,2 3,7 0,6
18.01.2018 04:00:00 4,7 3,8 4,5 24 13 50 27 SSW 996,3 3,7 2,4
18.01.2018 03:00:00 4,6 3,3 4,3 22 12 43 23 SSW 999,9 10 1,3
18.01.2018 02:00:00 5,0 2,4 4,7 18 10 32 18 SSW 1002,3 9 0,0
18.01.2018 01:00:00 5,0 1,4 4,5 16 9 32 18 SW 1004,7 10 0,0
18.01.2018 00:00:00 4,7 1,3 4,1 15 8 29 16 SSW 1006,1 10 0,0
17.01.2018 23:00:00 4,9 1,2 4,3 16 9 29 16 SW 1006,9 10 0,0
17.01.2018 22:00:00 5,0 1,0 4,5 18 10 32 18 SW 1007,3 10 0,0
17.01.2018 21:00:00 5,0 1,1 4,1 21 11 47 25 SW 1007,3 10 0,1
17.01.2018 20:00:00 5,4 1,6 4,9 24 13 40 21 WSW 1007,4 10 0,0
17.01.2018 19:00:00 5,7 1,6 5,2 29 16 43 23 WSW 1007,4 10 0,0
17.01.2018 18:00:00 5,6 1,4 5,0 26 14 40 21 WSW 1007,4 10 0,0
17.01.2018 17:00:00 5,3 0,9 4,7 31 17 43 23 W 1007,0 10 0,0
17.01.2018 16:00:00 5,9 1,3 5,5 31 17 50 27 W 1006,3 10 0,0
17.01.2018 15:00:00 5,8 1,3 5,6 34 18 58 31 W 1005,2 10 0,0
17.01.2018 14:00:00 6,1 1,3 5,8 37 20 61 33 W 1004,1 10 0,0
17.01.2018 13:00:00 5,7 1,4 5,2 34 18 50 27 W 1003,2 10 0,0
17.01.2018 12:00:00 5,1 1,2 4,7 34 18 50 27 W 1002,6 10 0,1
17.01.2018 11:00:00 3,9 1,2 3,6 34 18 50 27 W 1001,9 10 0,1
17.01.2018 10:00:00 4,2 0,8 3,5 29 16 47 25 W 1000,6 10 0,0
17.01.2018 09:00:00 4,0 0,2 2,8 28 15 50 27 W 999,4 10 0,0
17.01.2018 08:00:00 3,6 -0,5 2,8 35 19 54 29 W 998,1 10 0,0
17.01.2018 07:00:00 3,3 -0,9 2,3 28 15 54 29 W 997,1 10 0,3
17.01.2018 06:00:00 3,6 -0,4 2,7 26 14 50 27 W 996,0 10 0,0
17.01.2018 05:00:00 3,7 -0,2 2,8 31 17 58 31 W 995,1 10 0,1
17.01.2018 04:00:00 3,7 0,6 2,5 22 12 54 29 W 994,4 10 0,6
17.01.2018 03:00:00 3,8 0,2 3,2 26 14 43 23 W 993,3 10 0,0
17.01.2018 02:00:00 3,8 1,5 3,1 31 17 43 23 W 993,2 10 0,2
17.01.2018 01:00:00 3,9 1,8 3,3 24 13 47 25 W 993,0 10 1,6
17.01.2018 00:00:00 4,8 2,2 4,4 16 9 29 16 SW 992,5 10 0,0
16.01.2018 23:00:00 4,7 1,5 4,2 16 9 29 16 SW 993,0 10 0,0
16.01.2018 22:00:00 4,7 0,8 4,0 13 7 29 16 SW 993,4 10 0,0
16.01.2018 21:00:00 4,7 1,1 4,0 18 10 32 18 SW 993,7 10 0,0
16.01.2018 20:00:00 5,2 1,2 4,2 15 8 25 14 SW 994,0 10 0,0
16.01.2018 19:00:00 4,1 0,7 3,3 21 11 36 19 WSW 994,3 10 0,0
16.01.2018 18:00:00 5,3 1,3 4,4 21 11 40 21 W 994,7 10 0,0
16.01.2018 17:00:00 5,7 1,5 5,4 31 17 47 25 W 994,8 10 0,0
16.01.2018 16:00:00 6,0 1,7 5,5 18 10 50 27 W 994,8 10 0,0
16.01.2018 15:00:00 7,1 2,1 6,9 31 17 50 27 W 994,6 10 0,1
16.01.2018 14:00:00 6,8 2,0 6,7 32 18 50 27 W 994,7 23 0,0
16.01.2018 13:00:00 6,5 1,8 5,9 34 18 61 33 W 994,7 10 0,1
16.01.2018 12:00:00 6,2 1,8 5,8 31 17 50 27 W 994,6 10 0,0
16.01.2018 11:00:00 6,1 2,5 5,8 34 18 54 29 W 994,0 10 0,0
16.01.2018 10:00:00 6,3 3,1 5,9 34 18 54 29 W 993,1 10 0,0
16.01.2018 09:00:00 6,3 4,2 5,9 35 19 54 29 W 991,9 10 0,1
16.01.2018 08:00:00 6,4 4,3 6,0 31 17 36 19 W 991,6 10 0,0
16.01.2018 07:00:00 6,4 4,5 5,8 21 11 40 21 WSW 991,4 10 0,0
16.01.2018 06:00:00 6,5 4,4 5,9 24 13 40 21 WSW 991,4 10 0,0
16.01.2018 05:00:00 6,3 4,3 5,5 21 11 36 19 SW 992,0 10 0,0
16.01.2018 04:00:00 6,2 4,3 5,4 21 11 36 19 SW 992,5 10 0,0
16.01.2018 03:00:00 6,4 4,5 5,7 18 10 36 19 SW 992,8 10 0,0
16.01.2018 02:00:00 6,6 4,5 6,0 26 14 43 23 SW 993,2 10 0,0
16.01.2018 01:00:00 6,4 5,1 5,9 26 14 36 19 WSW 994,2 6 0,1
16.01.2018 00:00:00 6,6 5,3 5,8 18 10 32 18 SW 994,1 10 0,0
15.01.2018 23:00:00 6,4 4,7 5,8 22 12 32 18 WSW 993,3 10 0,0
15.01.2018 22:00:00 6,9 5,2 6,3 21 11 50 27 W 992,9 10 0,2
15.01.2018 21:00:00 7,4 6,4 7,0 28 15 47 25 W 992,1 10 3,5
15.01.2018 20:00:00 7,8 7,4 7,5 24 13 43 23 SW 991,4 10 0,8
15.01.2018 19:00:00 7,3 6,7 6,8 21 11 43 23 SSW 991,2 10 1,1
15.01.2018 18:00:00 6,5 5,7 6,2 24 13 50 27 SSW 992,2 10 0,7
15.01.2018 17:00:00 6,2 4,9 5,9 29 16 58 31 S 993,2 9 1,4
15.01.2018 16:00:00 6,4 4,9 6,0 29 16 65 35 SSW 995,3 10 1,0
15.01.2018 15:00:00 6,2 5,3 6,0 28 15 54 29 S 997,1 6 0,9
15.01.2018 14:00:00 6,1 5,2 5,9 26 14 47 25 S 999,0 5 0,9
15.01.2018 13:00:00 6,0 4,9 5,8 24 13 50 27 S 1001,5 4,5 0,9

tt = Température de l'air
td = dewpoint
tt 5cm = Température de l'air 5cm
ff = Vitesse du vent
fx = gusts
dd = Direction du vent
ppp = reduced air pressure
vv = visibility
rr = Quantités de précipitations

stations d'obs. à proximité